INMARSAT 5-F2

Last updated on Tue Jul 01 2025 00:02:46 GMT+0000 (Coordinated Universal Time)

1 40384U 15005A 25181.46271519 -.00000286 00000+0 00000+0 0 9997 2 40384 0.0184 37.3504 0000660 322.4124 30.5640 1.00272154 37466
UTC large
Height (km)
Speed (km/s)
/
Latitude / Longitude
Inclination (degrees)
Orbital Period (minutes)
Azimuth
Elevation
Range (km)
Doppler Factor

Next 0 passes for location: London (51.5072 / 0.1276)

Sorry there are no passes over London.